Weather in Piaseczno

Poland     52°04′36″N   21°01′11″E
temp.,
°C
wind,
m/s
gust,
m/s
humid.,
%
clouds,
%
prec.,
mm/h
press.,
hPa
HPBL,
m
11 may, tue
tue1123:00+13se4139053 0.0 1015295
02:00+12se4119560 0.0 1016236
05:00+11se5129336 0.0 1015247
08:00+15se715765 0.0 1015516
11:00+21se813605 0.0 1014857
14:00+23se811533 0.0 10131238
17:00+22se811615 0.0 10121130
20:00+17ese816726 0.0 1012575
12 may, wed
wed1223:00+15se716744 0.0 1012525
02:00+12se716705 0.0 1011430
05:00+11ese615695 0.0 1011407
08:00+15se716755 0.0 1011642
11:00+20se912615 0.0 10101177
14:00+22ese8105512 0.0 10101747
17:00+18ese896761 0.0 10101194
20:00+14ese713670 0.0 1009511
13 may, thu
thu1323:00+11ese613740 0.0 1009479
02:00+8e511840 0.0 1008341
05:00+6e411870 0.0 1007280
08:00+11ese69695 0.0 1006566
11:00+15ese79575 0.0 10041278
14:00+17ese675268 0.0 10021794
17:00+14se4775100 0.1 1001638
20:00+12ese3584100 0.1 1001288
14 may, fri
fri1423:00+10e2490100 0.0 1001195
02:00+10ese2293100 0.1 1000165
05:00+10sse1197100 0.7 1000100
08:00+11ssw369394 0.8 1001450
11:00+13ssw567892 0.1 1002928
14:00+12ssw558287 0.3 1003689
17:00+14sw2374100 0.0 1003741
20:00+12wsw368677 0.5 1003114
15 may, sat
sat1523:00+11wsw5119418 0.3 1005391
02:00+11w6987100 0.3 1006563
05:00+10w4892100 0.0 1007563
08:00+11w3691100 0.0 1008532
11:00+12wsw4583100 0.1 1009655
14:00+14wsw457595 0.9 1009807
17:00+16wsw466767 0.8 10091206
20:00+13w228218 1.1 100922